Location: Eferding
(48.3167°N, 14.0167°E)
Time: 19:54:28
(UTC+00:00)

YAOGAN 6 - Pass Details

Date: 12 November 2019
Orbit: 466 x 504 km, 97.0° (Epoch: 07 December)

Event Time Altitude Azimuth Distance (km) Brightness Sun altitude
Rises 16:24:49 0° 138° (SE) 2,512 5.9 -9.4°
Reaches altitude 10° 16:27:05 10° 126° (SE) 1,635 4.9 -9.8°
Maximum altitude 16:30:02 26° 68° (ENE) 973 3.5 -10.2°
Drops below altitude 10° 16:32:59 10° 11° (N) 1,638 5.0 -10.7°
Sets 16:35:15 0° 359° (N) 2,518 6.1 -11.1°
